Regional Weather Roundup
Issued by NWS

Home | Current Version | Previous Version | Graphics & Text | Print | Product List | Glossary On
Versions: 1 2 3 4 5 6 7 8 9 10 11 12 13 14 15 16 17 18 19 20 21 22 23 24 25 26 27 28 29 30 31 32 33 34 35 36 37 38 39 40 41 42 43 44 45 46 47 48 49 50
000
ASUS44 KMEG 301410
RWRTN
TENNESSEE HOURLY STATE WEATHER ROUNDUP
NATIONAL WEATHER SERVICE MEMPHIS TN
900 AM CDT TUE AUG 30 2016

TNZ002-004-019-021-049-052-054-088>092-301500-
WEST TENNESSEE

CITY           SKY/WX    TMP DP  RH WIND       PRES   REMARKS
MEMPHIS INTL   PTSUNNY   85  73  67 E7        30.08S HX  91
NWS MEMPHIS      N/A     82 N/A N/A MISG        N/A
JACKSON        SUNNY     80  76  87 CALM      30.10S
DYERSBURG      SUNNY     81  75  83 MISG      30.10S
UNION CITY     SUNNY     81  77  89 NE3       30.09S
PARIS          SUNNY     79  73  83 CALM      30.12S
LEXINGTON      SUNNY     81  73  78 SE3       30.09F
$$

TNZ008-025-027-028-033-062-065-066-301500-
NORTH MIDDLE TENNESSEE

CITY           SKY/WX    TMP DP  RH WIND       PRES   REMARKS
NASHVILLE      SUNNY     81  72  74 CALM      30.12S
CLARKSVILLE    SUNNY     79  71  76 E5        30.12S
SMYRNA         SUNNY     81  72  74 MISG      30.13S
COOKEVILLE     SUNNY     82  73  74 CALM      30.13S
CROSSVILLE     SUNNY     78  68  71 VRB3      30.19S
$$

TNZ061-075-076-078-094-096-097-301500-
SOUTH MIDDLE TENNESSEE

CITY           SKY/WX    TMP DP  RH WIND       PRES   REMARKS
FAYETTEVILLE   SUNNY     81  66  61 CALM      30.13S
TULLAHOMA      SUNNY     81  64  57 CALM      30.15R
WINCHESTER     SUNNY     81  66  61 CALM      30.13R
MCMINNVILLE    SUNNY     79  73  83 CALM      30.14S
COLUMBIA       SUNNY    N/A N/A N/A CALM      30.10F
SHELBYVILLE    SUNNY     82  73  74 CALM      30.13S
$$

TNZ017-018-042-046-047-301500-
NORTHEAST TENNESSEE

CITY           SKY/WX    TMP DP  RH WIND       PRES   REMARKS
TRI CITIES     SUNNY     77  67  71 E3        30.19S
ELIZABETHTON   SUNNY     77  68  73 CALM      30.18F
$$

TNZ012-013-036-069-073-074-301500-
CENTRAL EAST TENNESSEE

CITY           SKY/WX    TMP DP  RH WIND       PRES   REMARKS
KNOXVILLE      SUNNY     78  64  61 CALM      30.14
GATLINBURG     SUNNY     75  64  69 CALM      30.14S
MORRISTOWN     SUNNY     81  66  61 E7        30.16R
$$

TNZ083-085-099-301500-
SOUTHEAST TENNESSEE

CITY           SKY/WX    TMP DP  RH WIND       PRES   REMARKS
CHATTANOOGA    SUNNY     79  69  71 CALM      30.13S
$$

SKY/WX REPORTED AS FAIR MEANS FEW OR NO CLOUDS BELOW
12 THOUSAND FEET.





USA.gov is the U.S. government's official web portal to all federal, state and local government web resources and services.